Flag for Norway Weather past 2 weeks in Røyken, Norway

Now
63 °F

Mild.


Feels Like: 63 °F
Forecast: 64 / 77 °F
Wind: 13 mph from Southeast

Location: Oslo / Fornebu

Current Time: Jul 26, 2014 at 3:25:23 AM

Latest Report: Jul 26, 2014 at 2:50 AM


Visibility: N/A

Pressure: 30.12 "Hg

Humidity: 94%

Dew point: 61 °F

Location of RøykenLocation

Historic Weather in Røyken — Graph

°F

Røyken temperature yesterday

Maximum temperature yesterday: 64 °F (at 4:50 PM)
Minimum temperature yesterday: 57 °F (at 12:20 AM)
Average temperature yesterday: 60 °F

Past Weeks' High & Low Weather Summary

 TemperatureHumidityPressure
High75 °F (Jul 20, 2:20 PM)100% (Jul 11, 1:20 AM)30.39 "Hg (Jul 11, 1:20 AM)
Low52 °F (Jul 11, 4:50 AM)47% (Jul 21, 12:20 AM)29.65 "Hg (Jul 15, 9:20 AM)
Average60 °F86%30.05 "Hg
* Reported Jul 11 1:20 AM — Jul 26 1:50 AM, Røyken, Weather by CustomWeather, © 2014

Note: Actual official high and low records may vary slightly from our data, if they occured in-between our weather recording intervals... More about our weather records

Advertising

Røyken weather history for previous 24 hours

 ConditionsComfort  
Time TempWeatherWind HumidityBarometerVisibility
1:50 AM
Jul 26
63 °FMild.12 mph94%30.15 "HgN/A
1:20 AM63 °FPassing clouds.12 mph94%30.15 "HgN/A
12:50 AM63 °FPassing clouds.15 mph94%30.15 "HgN/A
12:20 AM63 °FPassing clouds.15 mph94%30.15 "HgN/A
11:50 PM
Jul 25
61 °FPassing clouds.15 mph100%30.15 "Hg6 mi
11:20 PM63 °FPassing clouds.15 mph94%30.15 "HgN/A
10:50 PM63 °FPartly sunny.16 mph94%30.15 "Hg6 mi
10:20 PM63 °FPartly sunny.18 mph94%30.18 "HgN/A
9:50 PM63 °FMild.20 mph94%30.18 "HgN/A
9:20 PM63 °FMild.N/A94%30.15 "HgN/A
8:50 PM63 °FPartly sunny.21 mph94%30.18 "HgN/A
8:20 PM63 °FMild.22 mph94%30.18 "HgN/A
7:50 PM63 °FMild.21 mph94%30.18 "HgN/A
7:20 PM63 °FPassing clouds.21 mph94%30.18 "HgN/A
6:50 PM63 °FScattered clouds.20 mph94%30.18 "HgN/A
6:20 PM63 °FPartly sunny.20 mph94%30.18 "HgN/A
5:50 PM63 °FScattered clouds.18 mph94%30.18 "HgN/A
5:20 PM63 °FScattered clouds.18 mph94%30.18 "HgN/A
4:50 PM64 °FPartly sunny.17 mph94%30.21 "HgN/A
4:20 PM63 °FPartly sunny.15 mph94%30.21 "HgN/A
3:50 PM63 °FPartly sunny.15 mph94%30.21 "HgN/A
3:20 PM63 °FPartly sunny.16 mph94%30.21 "HgN/A
2:50 PM63 °FPartly sunny.16 mph94%30.21 "HgN/A
2:20 PM63 °FBroken clouds.16 mph94%30.21 "HgN/A
1:50 PM63 °FPartly sunny.16 mph94%30.21 "HgN/A
1:20 PM61 °FPartly sunny.14 mph94%30.24 "Hg5 mi
12:50 PM61 °FPartly sunny.14 mph94%30.24 "HgN/A
12:20 PM61 °FPartly sunny.14 mph100%30.24 "HgN/A
11:50 AM61 °FPartly sunny.13 mph94%30.24 "HgN/A
11:20 AM59 °FPartly sunny.14 mph100%30.24 "HgN/A
10:50 AM59 °FPartly sunny.14 mph100%30.24 "HgN/A
10:20 AM59 °FPartly sunny.16 mph100%30.24 "HgN/A
9:50 AM59 °FPartly sunny.16 mph100%30.24 "HgN/A
9:20 AM57 °FPartly sunny.15 mph100%30.21 "Hg5 mi
8:50 AM57 °FPartly sunny.15 mph100%30.21 "HgN/A
8:20 AM57 °FFog.15 mph100%30.21 "Hg0 mi
7:50 AM57 °FLight rain. Fog.15 mph100%30.21 "Hg1 mi
7:20 AM57 °FFog.14 mph100%30.21 "Hg1 mi
6:50 AM57 °FFog.13 mph100%30.21 "Hg0 mi
6:20 AM57 °FFog.15 mph100%30.21 "Hg1 mi
5:50 AM57 °FFog.15 mph100%30.21 "Hg0 mi
5:20 AM57 °FFog.15 mph100%30.21 "Hg0 mi
4:50 AM57 °FFog.14 mph100%30.24 "Hg0 mi
4:20 AM57 °FFog.13 mph100%30.21 "Hg0 mi
3:50 AM57 °FFog.13 mph100%30.24 "Hg0 mi
3:20 AM57 °FFog.10 mph100%30.24 "Hg0 mi
Weather by CustomWeather, © 2014

See weather overviewHow to use our weather pages